{"data":{"norad_id":48129,"epoch":"2026-05-25T02:11:27.221856Z","epoch_age_seconds":63246,"freshness":"FRESH","line1":"1 48129U 21027AP  26145.09128729 -.00001232  00000+0 -27943-4 0  9990","line2":"2 48129  53.1585 170.2234 0000847  66.1070 294.0020 15.31703416284216","mean_motion":15.31703416,"eccentricity":8.47e-5,"inclination_deg":53.1585,"raan_deg":170.2234,"arg_perigee_deg":66.107,"mean_anomaly_deg":294.002,"bstar":-2.7943e-5,"rev_number":28421,"period_min":94.012978293182,"perigee_km":470.14971330732,"apogee_km":471.30991134533,"semimajor_km":6848.8668123263,"source":"CELESTRAK","updated_at":"2026-05-25T13:38:16.647798Z"}}